Location: Newark
(37.9128°N, 122.4756°W)
Time: 23:02:29
(UTC+00:00)

X-37B - Visible Passes

Search period start: 05 March 2021 00:00
Search period end: 15 March 2021 00:00
Orbit: 383 x 391 km, 45.0° (Epoch: 27 February)

Date Brightness Start Highest point End Pass type
(mag) Time Alt. Az. Time Alt. Az. Time Alt. Az.
05 Mar 3.1 13:02:20 13° S 13:02:20 13° S 13:02:53 10° SSE visible
10 Mar 2.1 03:15:22 10° S 03:17:49 20° SE 03:17:55 20° SE visible
11 Mar 1.2 03:52:40 10° WSW 03:55:10 51° SW 03:55:10 51° SW visible
12 Mar 1.2 02:54:32 10° SW 02:57:33 39° SE 02:59:57 14° E visible
12 Mar 3.5 04:31:12 10° W 04:32:16 18° WNW 04:32:16 18° WNW visible
13 Mar 1.1 03:32:36 10° WSW 03:35:45 57° NNW 03:36:56 33° NE visible
14 Mar 2.6 04:11:27 10° WNW 04:13:47 26° NNW 04:13:47 26° NNW visible
